Year,Month,Day,Hour,Minute,Value (Times are PST for temperature in C)
2009,06,04,00,00,18.20
2009,06,04,00,01,18.10
2009,06,04,00,02,18.00
2009,06,04,00,03,18.00
2009,06,04,00,04,17.90
2009,06,04,00,05,17.90
2009,06,04,00,06,17.90
2009,06,04,00,07,17.80
2009,06,04,00,08,17.80
2009,06,04,00,09,17.80
2009,06,04,00,10,17.80
2009,06,04,00,11,17.80
2009,06,04,00,12,17.80
2009,06,04,00,13,17.80
2009,06,04,00,14,17.90
2009,06,04,00,15,17.90
2009,06,04,00,16,17.90
2009,06,04,00,17,17.90
2009,06,04,00,18,18.00
2009,06,04,00,19,18.00
2009,06,04,00,20,18.10
2009,06,04,00,21,18.10
2009,06,04,00,22,18.10
2009,06,04,00,23,18.20
2009,06,04,00,24,18.20
2009,06,04,00,25,18.20
2009,06,04,00,26,18.20
2009,06,04,00,27,18.20
2009,06,04,00,28,18.20
2009,06,04,00,29,18.20
2009,06,04,00,30,18.20
2009,06,04,00,31,18.20
2009,06,04,00,32,18.20
2009,06,04,00,33,18.30
2009,06,04,00,34,18.30
2009,06,04,00,35,18.30
2009,06,04,00,36,18.30
2009,06,04,00,37,18.30
2009,06,04,00,38,18.40
2009,06,04,00,39,18.40
2009,06,04,00,40,18.40
2009,06,04,00,41,18.30
2009,06,04,00,42,18.30
2009,06,04,00,43,18.30
2009,06,04,00,44,18.30
2009,06,04,00,45,18.30
2009,06,04,00,46,18.20
2009,06,04,00,47,18.20
2009,06,04,00,48,18.20
2009,06,04,00,49,18.10
2009,06,04,00,50,18.10
2009,06,04,00,51,18.10
2009,06,04,00,52,18.00
2009,06,04,00,53,17.90
2009,06,04,00,54,17.90
2009,06,04,00,55,17.90
2009,06,04,00,56,17.80
2009,06,04,00,57,17.80
2009,06,04,00,58,17.80
2009,06,04,00,59,17.70
2009,06,04,01,00,17.70
2009,06,04,01,01,17.70
2009,06,04,01,02,17.60
2009,06,04,01,03,17.60
2009,06,04,01,04,17.60
2009,06,04,01,05,17.60
2009,06,04,01,06,17.60
2009,06,04,01,07,17.50
2009,06,04,01,08,17.50
2009,06,04,01,09,17.50
2009,06,04,01,10,17.50
2009,06,04,01,11,17.60
2009,06,04,01,12,17.60
2009,06,04,01,13,17.60
2009,06,04,01,14,17.60
2009,06,04,01,15,17.70
2009,06,04,01,16,17.70
2009,06,04,01,17,17.80
2009,06,04,01,18,17.80
2009,06,04,01,19,17.80
2009,06,04,01,20,17.80
2009,06,04,01,21,17.90
2009,06,04,01,22,17.90
2009,06,04,01,23,17.90
2009,06,04,01,24,17.90
2009,06,04,01,25,17.90
2009,06,04,01,26,17.90
2009,06,04,01,27,17.90
2009,06,04,01,28,17.90
2009,06,04,01,29,17.90
2009,06,04,01,30,17.90
2009,06,04,01,31,17.90
2009,06,04,01,32,17.90
2009,06,04,01,33,17.90
2009,06,04,01,34,17.90
2009,06,04,01,35,17.90
2009,06,04,01,36,17.90
2009,06,04,01,37,17.90
2009,06,04,01,38,17.90
2009,06,04,01,39,17.80
2009,06,04,01,40,17.80
2009,06,04,01,41,17.80
2009,06,04,01,42,17.80
2009,06,04,01,43,17.80
2009,06,04,01,44,17.80
2009,06,04,01,45,17.80
2009,06,04,01,46,17.80
2009,06,04,01,47,17.80
2009,06,04,01,48,17.80
2009,06,04,01,49,17.80
2009,06,04,01,50,17.80
2009,06,04,01,51,17.80
2009,06,04,01,52,17.80
2009,06,04,01,53,17.80
2009,06,04,01,54,17.80
2009,06,04,01,55,17.80
2009,06,04,01,56,17.70
2009,06,04,01,57,17.70
2009,06,04,01,58,17.70
2009,06,04,01,59,17.70
2009,06,04,02,00,17.70
2009,06,04,02,01,17.70
2009,06,04,02,02,17.70
2009,06,04,02,03,17.70
2009,06,04,02,04,17.70
2009,06,04,02,05,17.70
2009,06,04,02,06,17.70
2009,06,04,02,07,17.70
2009,06,04,02,08,17.70
2009,06,04,02,09,17.70
2009,06,04,02,10,17.70
2009,06,04,02,11,17.60
2009,06,04,02,12,17.60
2009,06,04,02,13,17.50
2009,06,04,02,14,17.40
2009,06,04,02,15,17.40
2009,06,04,02,16,17.30
2009,06,04,02,17,17.20
2009,06,04,02,18,17.10
2009,06,04,02,19,17.00
2009,06,04,02,20,16.90
2009,06,04,02,21,16.80
2009,06,04,02,22,16.80
2009,06,04,02,23,16.70
2009,06,04,02,24,16.60
2009,06,04,02,25,16.60
2009,06,04,02,26,16.50
2009,06,04,02,27,16.40
2009,06,04,02,28,16.40
2009,06,04,02,29,16.30
2009,06,04,02,30,16.30
2009,06,04,02,31,16.30
2009,06,04,02,32,16.30
2009,06,04,02,33,16.20
2009,06,04,02,34,16.20
2009,06,04,02,35,16.20
2009,06,04,02,36,16.20
2009,06,04,02,37,16.20
2009,06,04,02,38,16.20
2009,06,04,02,39,16.20
2009,06,04,02,40,16.20
2009,06,04,02,41,16.20
2009,06,04,02,42,16.20
2009,06,04,02,43,16.30
2009,06,04,02,44,16.40
2009,06,04,02,45,16.40
2009,06,04,02,46,16.50
2009,06,04,02,47,16.50
2009,06,04,02,48,16.50
2009,06,04,02,49,16.50
2009,06,04,02,50,16.60
2009,06,04,02,51,16.60
2009,06,04,02,52,16.60
2009,06,04,02,53,16.60
2009,06,04,02,54,16.60
2009,06,04,02,55,16.60
2009,06,04,02,56,16.60
2009,06,04,02,57,16.60
2009,06,04,02,58,16.50
2009,06,04,02,59,16.50
2009,06,04,03,00,16.40
2009,06,04,03,01,16.30
2009,06,04,03,02,16.30
2009,06,04,03,03,16.20
2009,06,04,03,04,16.20
2009,06,04,03,05,16.20
2009,06,04,03,06,16.10
2009,06,04,03,07,16.20
2009,06,04,03,08,16.10
2009,06,04,03,09,16.10
2009,06,04,03,10,16.20
2009,06,04,03,11,16.10
2009,06,04,03,12,16.20
2009,06,04,03,13,16.20
2009,06,04,03,14,16.10
2009,06,04,03,15,16.10
2009,06,04,03,16,16.10
2009,06,04,03,17,16.10
2009,06,04,03,18,16.00
2009,06,04,03,19,16.00
2009,06,04,03,20,16.10
2009,06,04,03,21,16.10
2009,06,04,03,22,16.30
2009,06,04,03,23,16.40
2009,06,04,03,24,16.50
2009,06,04,03,25,16.60
2009,06,04,03,26,16.70
2009,06,04,03,27,16.80
2009,06,04,03,28,16.80
2009,06,04,03,29,16.90
2009,06,04,03,30,17.00
2009,06,04,03,31,17.10
2009,06,04,03,34,17.20
2009,06,04,03,35,17.20
2009,06,04,03,36,17.20
2009,06,04,03,37,17.10
2009,06,04,03,38,17.10
2009,06,04,03,39,17.10
2009,06,04,03,40,17.00
2009,06,04,03,41,17.00
2009,06,04,03,42,16.90
2009,06,04,03,43,16.80
2009,06,04,03,44,16.80
2009,06,04,03,45,16.70
2009,06,04,03,46,16.70
2009,06,04,03,47,16.60
2009,06,04,03,48,16.60
2009,06,04,03,49,16.50
2009,06,04,03,50,16.40
2009,06,04,03,51,16.40
2009,06,04,03,52,16.30
2009,06,04,03,53,16.30
2009,06,04,03,54,16.30
2009,06,04,03,55,16.20
2009,06,04,03,56,16.20
2009,06,04,03,57,16.20
2009,06,04,03,58,16.10
2009,06,04,03,59,16.10
2009,06,04,04,00,16.00
2009,06,04,04,01,15.90
2009,06,04,04,02,15.90
2009,06,04,04,03,15.80
2009,06,04,04,04,15.70
2009,06,04,04,05,15.70
2009,06,04,04,06,15.60
2009,06,04,04,07,15.50
2009,06,04,04,08,15.40
2009,06,04,04,09,15.30
2009,06,04,04,10,15.30
2009,06,04,04,11,15.20
2009,06,04,04,12,15.10
2009,06,04,04,13,15.10
2009,06,04,04,14,15.00
2009,06,04,04,15,15.00
2009,06,04,04,16,15.00
2009,06,04,04,17,15.00
2009,06,04,04,18,15.00
2009,06,04,04,19,15.00
2009,06,04,04,20,15.00
2009,06,04,04,21,15.00
2009,06,04,04,22,15.00
2009,06,04,04,23,15.00
2009,06,04,04,24,15.00
2009,06,04,04,25,15.00
2009,06,04,04,26,15.00
2009,06,04,04,27,15.00
2009,06,04,04,28,15.00
2009,06,04,04,29,15.00
2009,06,04,04,30,15.00
2009,06,04,04,31,15.00
2009,06,04,04,32,15.00
2009,06,04,04,33,15.00
2009,06,04,04,34,15.00
2009,06,04,04,35,15.00
2009,06,04,04,36,15.00
2009,06,04,04,37,15.00
2009,06,04,04,38,15.00
2009,06,04,04,39,15.00
2009,06,04,04,40,14.90
2009,06,04,04,41,14.90
2009,06,04,04,42,14.90
2009,06,04,04,43,14.80
2009,06,04,04,44,14.80
2009,06,04,04,45,14.80
2009,06,04,04,46,14.80
2009,06,04,04,47,14.70
2009,06,04,04,48,14.70
2009,06,04,04,49,14.70
2009,06,04,04,50,14.60
2009,06,04,04,51,14.60
2009,06,04,04,52,14.50
2009,06,04,04,53,14.50
2009,06,04,04,54,14.50
2009,06,04,04,55,14.50
2009,06,04,04,56,14.60
2009,06,04,04,57,14.60
2009,06,04,04,58,14.60
2009,06,04,04,59,14.60
2009,06,04,05,00,14.60
2009,06,04,05,01,14.70
2009,06,04,05,02,14.70
2009,06,04,05,03,14.70
2009,06,04,05,04,14.70
2009,06,04,05,05,14.80
2009,06,04,05,06,14.90
2009,06,04,05,07,15.00
2009,06,04,05,08,15.00
2009,06,04,05,09,15.00
2009,06,04,05,10,15.00
2009,06,04,05,11,15.00
2009,06,04,05,12,15.00
2009,06,04,05,13,15.00
2009,06,04,05,14,15.00
2009,06,04,05,15,15.00
2009,06,04,05,16,15.00
2009,06,04,05,17,15.00
2009,06,04,05,18,15.00
2009,06,04,05,19,15.00
2009,06,04,05,20,15.00
2009,06,04,05,21,15.00
2009,06,04,05,22,15.00
2009,06,04,05,23,14.90
2009,06,04,05,24,14.90
2009,06,04,05,25,14.80
2009,06,04,05,26,14.70
2009,06,04,05,27,14.70
2009,06,04,05,28,14.60
2009,06,04,05,29,14.60
2009,06,04,05,30,14.50
2009,06,04,05,31,14.50
2009,06,04,05,32,14.50
2009,06,04,05,33,14.40
2009,06,04,05,34,14.40
2009,06,04,05,35,14.40
2009,06,04,05,36,14.40
2009,06,04,05,37,14.30
2009,06,04,05,38,14.30
2009,06,04,05,39,14.30
2009,06,04,05,40,14.30
2009,06,04,05,41,14.20
2009,06,04,05,42,14.20
2009,06,04,05,43,14.20
2009,06,04,05,44,14.20
2009,06,04,05,45,14.20
2009,06,04,05,46,14.20
2009,06,04,05,47,14.20
2009,06,04,05,48,14.20
2009,06,04,05,49,14.20
2009,06,04,05,50,14.20
2009,06,04,05,51,14.20
2009,06,04,05,52,14.20
2009,06,04,05,53,14.20
2009,06,04,05,54,14.20
2009,06,04,05,55,14.20
2009,06,04,05,56,14.20
2009,06,04,05,57,14.30
2009,06,04,05,58,14.30
2009,06,04,05,59,14.30
2009,06,04,06,00,14.40
2009,06,04,06,01,14.40
2009,06,04,06,02,14.50
2009,06,04,06,03,14.50
2009,06,04,06,04,14.60
2009,06,04,06,05,14.60
2009,06,04,06,06,14.60
2009,06,04,06,07,14.70
2009,06,04,06,08,14.70
2009,06,04,06,09,14.70
2009,06,04,06,10,14.70
2009,06,04,06,11,14.70
2009,06,04,06,12,14.70
2009,06,04,06,13,14.70
2009,06,04,06,14,14.70
2009,06,04,06,15,14.70
2009,06,04,06,16,14.70
2009,06,04,06,17,14.70
2009,06,04,06,18,14.80
2009,06,04,06,19,14.80
2009,06,04,06,20,14.80
2009,06,04,06,21,14.90
2009,06,04,06,22,15.00
2009,06,04,06,23,15.00
2009,06,04,06,24,15.00
2009,06,04,06,25,15.00
2009,06,04,06,26,15.10
2009,06,04,06,27,15.20
2009,06,04,06,28,15.30
2009,06,04,06,29,15.30
2009,06,04,06,30,15.40
2009,06,04,06,31,15.50
2009,06,04,06,32,15.60
2009,06,04,06,33,15.80
2009,06,04,06,34,15.90
2009,06,04,06,35,16.00
2009,06,04,06,36,16.10
2009,06,04,06,37,16.20
2009,06,04,06,38,16.40
2009,06,04,06,39,16.50
2009,06,04,06,40,16.70
2009,06,04,06,41,16.90
2009,06,04,06,42,17.00
2009,06,04,06,43,17.20
2009,06,04,06,44,17.40
2009,06,04,06,45,17.50
2009,06,04,06,46,17.70
2009,06,04,06,47,17.80
2009,06,04,06,48,17.90
2009,06,04,06,49,18.00
2009,06,04,06,50,18.10
2009,06,04,06,51,18.10
2009,06,04,06,52,18.20
2009,06,04,06,53,18.30
2009,06,04,06,54,18.30
2009,06,04,06,55,18.40
2009,06,04,06,56,18.40
2009,06,04,06,57,18.50
2009,06,04,06,58,18.60
2009,06,04,06,59,18.60
2009,06,04,07,00,18.70
2009,06,04,07,01,18.80
2009,06,04,07,02,18.80
2009,06,04,07,03,18.90
2009,06,04,07,04,19.00
2009,06,04,07,05,19.10
2009,06,04,07,06,19.10
2009,06,04,07,07,19.20
2009,06,04,07,08,19.30
2009,06,04,07,09,19.30
2009,06,04,07,10,19.40
2009,06,04,07,11,19.40
2009,06,04,07,12,19.50
2009,06,04,07,13,19.60
2009,06,04,07,14,19.60
2009,06,04,07,15,19.70
2009,06,04,07,16,19.70
2009,06,04,07,17,19.80
2009,06,04,07,18,19.80
2009,06,04,07,19,19.90
2009,06,04,07,20,20.00
2009,06,04,07,21,20.10
2009,06,04,07,22,20.20
2009,06,04,07,23,20.30
2009,06,04,07,24,20.40
2009,06,04,07,25,20.40
2009,06,04,07,26,20.60
2009,06,04,07,27,20.70
2009,06,04,07,28,20.80
2009,06,04,07,29,20.90
2009,06,04,07,30,21.00
2009,06,04,07,31,21.10
2009,06,04,07,32,21.20
2009,06,04,07,33,21.30
2009,06,04,07,34,21.30
2009,06,04,07,35,21.40
2009,06,04,07,36,21.40
2009,06,04,07,37,21.40
2009,06,04,07,38,21.40
2009,06,04,07,39,21.40
2009,06,04,07,40,21.40
2009,06,04,07,41,21.40
2009,06,04,07,42,21.40
2009,06,04,07,43,21.40
2009,06,04,07,44,21.50
2009,06,04,07,45,21.50
2009,06,04,07,46,21.60
2009,06,04,07,47,21.70
2009,06,04,07,48,21.70
2009,06,04,07,49,21.80
2009,06,04,07,50,21.80
2009,06,04,07,51,21.90
2009,06,04,07,52,21.90
2009,06,04,07,53,22.00
2009,06,04,07,54,22.10
2009,06,04,07,55,22.10
2009,06,04,07,56,22.20
2009,06,04,07,57,22.20
2009,06,04,07,58,22.30
2009,06,04,07,59,22.30
2009,06,04,08,00,22.30
2009,06,04,08,01,22.40
2009,06,04,08,02,22.40
2009,06,04,08,03,22.50
2009,06,04,08,04,22.50
2009,06,04,08,05,22.60
2009,06,04,08,06,22.60
2009,06,04,08,07,22.70
2009,06,04,08,08,22.70
2009,06,04,08,09,22.70
2009,06,04,08,10,22.70
2009,06,04,08,11,22.80
2009,06,04,08,12,22.80
2009,06,04,08,13,22.70
2009,06,04,08,14,22.50
2009,06,04,08,15,22.40
2009,06,04,08,16,22.20
2009,06,04,08,17,22.10
2009,06,04,08,18,22.00
2009,06,04,08,19,21.90
2009,06,04,08,20,21.80
2009,06,04,08,21,21.80
2009,06,04,08,22,21.80
2009,06,04,08,23,21.80
2009,06,04,08,24,21.70
2009,06,04,08,25,21.70
2009,06,04,08,26,21.60
2009,06,04,08,27,21.60
2009,06,04,08,28,21.50
2009,06,04,08,29,21.50
2009,06,04,08,30,21.40
2009,06,04,08,31,21.40
2009,06,04,08,32,21.40
2009,06,04,08,33,21.40
2009,06,04,08,34,21.50
2009,06,04,08,35,21.60
2009,06,04,08,36,21.70
2009,06,04,08,37,21.80
2009,06,04,08,38,21.90
2009,06,04,08,39,22.10
2009,06,04,08,40,22.20
2009,06,04,08,41,22.40
2009,06,04,08,42,22.50
2009,06,04,08,43,22.60
2009,06,04,08,44,22.80
2009,06,04,08,45,23.00
2009,06,04,08,46,23.10
2009,06,04,08,47,23.30
2009,06,04,08,48,23.40
2009,06,04,08,49,23.50
2009,06,04,08,50,23.70
2009,06,04,08,51,23.80
2009,06,04,08,52,23.90
2009,06,04,08,53,24.00
2009,06,04,08,54,24.10
2009,06,04,08,55,24.20
2009,06,04,08,56,24.30
2009,06,04,08,57,24.30
2009,06,04,08,58,24.40
2009,06,04,08,59,24.40
2009,06,04,09,00,24.40
2009,06,04,09,01,24.40
2009,06,04,09,02,24.50
2009,06,04,09,03,24.50
2009,06,04,09,04,24.50
2009,06,04,09,05,24.50
2009,06,04,09,06,24.50
2009,06,04,09,07,24.60
2009,06,04,09,08,24.70
2009,06,04,09,09,24.70
2009,06,04,09,10,24.80
2009,06,04,09,11,24.90
2009,06,04,09,12,25.00
2009,06,04,09,13,25.00
2009,06,04,09,14,25.10
2009,06,04,09,15,25.10
2009,06,04,09,16,25.10
2009,06,04,09,17,25.10
2009,06,04,09,18,25.10
2009,06,04,09,19,25.10
2009,06,04,09,20,25.20
2009,06,04,09,21,25.20
2009,06,04,09,22,25.30
2009,06,04,09,23,25.30
2009,06,04,09,24,25.30
2009,06,04,09,25,25.40
2009,06,04,09,26,25.40
2009,06,04,09,27,25.50
2009,06,04,09,28,25.60
2009,06,04,09,29,25.60
2009,06,04,09,30,25.70
2009,06,04,09,31,25.80
2009,06,04,09,32,25.90
2009,06,04,09,33,25.90
2009,06,04,09,34,25.90
2009,06,04,09,35,26.00
2009,06,04,09,36,26.10
2009,06,04,09,37,26.10
2009,06,04,09,38,26.00
2009,06,04,09,39,25.90
2009,06,04,09,40,25.90
2009,06,04,09,41,25.80
2009,06,04,09,42,25.60
2009,06,04,09,43,25.50
2009,06,04,09,44,25.40
2009,06,04,09,45,25.40
2009,06,04,09,46,25.40
2009,06,04,09,47,25.50
2009,06,04,09,48,25.60
2009,06,04,09,49,25.70
2009,06,04,09,50,25.80
2009,06,04,09,51,25.90
2009,06,04,09,52,26.10
2009,06,04,09,53,26.20
2009,06,04,09,54,26.30
2009,06,04,09,55,26.40
2009,06,04,09,56,26.40
2009,06,04,09,57,26.40
2009,06,04,09,58,26.40
2009,06,04,09,59,26.40
2009,06,04,10,00,26.40
2009,06,04,10,01,26.30
2009,06,04,10,02,26.10
2009,06,04,10,03,25.90
2009,06,04,10,04,25.90
2009,06,04,10,05,25.80
2009,06,04,10,06,25.80
2009,06,04,10,07,25.90
2009,06,04,10,08,26.00
2009,06,04,10,09,26.20
2009,06,04,10,10,26.40
2009,06,04,10,11,26.50
2009,06,04,10,12,26.60
2009,06,04,10,13,26.70
2009,06,04,10,14,26.90
2009,06,04,10,15,27.10
2009,06,04,10,16,27.30
2009,06,04,10,17,27.40
2009,06,04,10,18,27.60
2009,06,04,10,19,27.60
2009,06,04,10,20,27.70
2009,06,04,10,21,27.70
2009,06,04,10,22,27.70
2009,06,04,10,23,27.60
2009,06,04,10,24,27.60
2009,06,04,10,25,27.50
2009,06,04,10,26,27.40
2009,06,04,10,27,27.30
2009,06,04,10,28,27.20
2009,06,04,10,29,27.10
2009,06,04,10,30,27.00
2009,06,04,10,31,26.90
2009,06,04,10,32,26.90
2009,06,04,10,33,26.80
2009,06,04,10,34,26.70
2009,06,04,10,35,26.70
2009,06,04,10,36,26.70
2009,06,04,10,37,26.70
2009,06,04,10,38,26.70
2009,06,04,10,39,26.70
2009,06,04,10,40,26.70
2009,06,04,10,41,26.80
2009,06,04,10,42,27.00
2009,06,04,10,43,27.10
2009,06,04,10,44,27.30
2009,06,04,10,45,27.40
2009,06,04,10,46,27.50
2009,06,04,10,47,27.60
2009,06,04,10,48,27.60
2009,06,04,10,49,27.70
2009,06,04,10,50,27.80
2009,06,04,10,51,27.90
2009,06,04,10,52,28.00
2009,06,04,10,53,28.10
2009,06,04,10,54,28.10
2009,06,04,10,55,28.10
2009,06,04,10,56,28.00
2009,06,04,10,57,28.00
2009,06,04,10,58,28.00
2009,06,04,10,59,28.00
2009,06,04,11,00,28.00
2009,06,04,11,01,28.00
2009,06,04,11,02,28.10
2009,06,04,11,03,28.10
2009,06,04,11,04,28.10
2009,06,04,11,05,28.00
2009,06,04,11,06,27.90
2009,06,04,11,07,27.90
2009,06,04,11,08,27.90
2009,06,04,11,09,27.80
2009,06,04,11,10,27.60
2009,06,04,11,11,27.50
2009,06,04,11,12,27.40
2009,06,04,11,13,27.30
2009,06,04,11,14,27.30
2009,06,04,11,15,27.30
2009,06,04,11,16,27.30
2009,06,04,11,17,27.30
2009,06,04,11,18,27.30
2009,06,04,11,19,27.20
2009,06,04,11,20,27.10
2009,06,04,11,21,27.20
2009,06,04,11,22,27.20
2009,06,04,11,23,27.30
2009,06,04,11,24,27.30
2009,06,04,11,25,27.40
2009,06,04,11,26,27.30
2009,06,04,11,27,27.30
2009,06,04,11,28,27.30
2009,06,04,11,29,27.30
2009,06,04,11,30,27.40
2009,06,04,11,31,27.40
2009,06,04,11,32,27.40
2009,06,04,11,33,27.40
2009,06,04,11,34,27.40
2009,06,04,11,35,27.50
2009,06,04,11,36,27.60
2009,06,04,11,37,27.70
2009,06,04,11,38,27.90
2009,06,04,11,39,28.10
2009,06,04,11,40,28.30
2009,06,04,11,41,28.40
2009,06,04,11,42,28.50
2009,06,04,11,43,28.70
2009,06,04,11,44,28.80
2009,06,04,11,45,28.90
2009,06,04,11,46,29.00
2009,06,04,11,47,29.20
2009,06,04,11,48,29.30
2009,06,04,11,49,29.40
2009,06,04,11,50,29.50
2009,06,04,11,51,29.60
2009,06,04,11,52,29.60
2009,06,04,11,53,29.50
2009,06,04,11,54,29.30
2009,06,04,11,55,29.20
2009,06,04,11,56,29.10
2009,06,04,11,57,29.00
2009,06,04,11,58,28.90
2009,06,04,11,59,28.80
2009,06,04,12,00,28.80
2009,06,04,12,01,28.80
2009,06,04,12,02,28.90
2009,06,04,12,03,28.90
2009,06,04,12,04,28.90
2009,06,04,12,05,29.00
2009,06,04,12,06,29.10
2009,06,04,12,07,29.30
2009,06,04,12,08,29.40
2009,06,04,12,09,29.60
2009,06,04,12,10,29.60
2009,06,04,12,11,29.60
2009,06,04,12,12,29.60
2009,06,04,12,13,29.50
2009,06,04,12,14,29.40
2009,06,04,12,15,29.40
2009,06,04,12,16,29.30
2009,06,04,12,17,29.20
2009,06,04,12,18,29.00
2009,06,04,12,19,28.90
2009,06,04,12,20,28.80
2009,06,04,12,21,28.70
2009,06,04,12,22,28.60
2009,06,04,12,23,28.50
2009,06,04,12,24,28.40
2009,06,04,12,25,28.30
2009,06,04,12,26,28.30
2009,06,04,12,27,28.30
2009,06,04,12,28,28.30
2009,06,04,12,29,28.30
2009,06,04,12,30,28.30
2009,06,04,12,31,28.30
2009,06,04,12,32,28.30
2009,06,04,12,33,28.30
2009,06,04,12,34,28.30
2009,06,04,12,35,28.30
2009,06,04,12,36,28.30
2009,06,04,12,37,28.40
2009,06,04,12,38,28.40
2009,06,04,12,39,28.50
2009,06,04,12,40,28.50
2009,06,04,12,41,28.60
2009,06,04,12,42,28.70
2009,06,04,12,43,28.70
2009,06,04,12,44,28.70
2009,06,04,12,45,28.80
2009,06,04,12,46,28.80
2009,06,04,12,47,28.90
2009,06,04,12,48,28.90
2009,06,04,12,49,28.80
2009,06,04,12,50,28.60
2009,06,04,12,51,28.50
2009,06,04,12,52,28.50
2009,06,04,12,53,28.40
2009,06,04,12,54,28.50
2009,06,04,12,55,28.60
2009,06,04,12,56,28.70
2009,06,04,12,57,28.80
2009,06,04,12,58,28.80
2009,06,04,12,59,28.80
2009,06,04,13,00,28.80
2009,06,04,13,01,28.80
2009,06,04,13,02,28.80
2009,06,04,13,03,28.80
2009,06,04,13,04,28.90
2009,06,04,13,05,29.00
2009,06,04,13,06,29.10
2009,06,04,13,07,29.20
2009,06,04,13,08,29.30
2009,06,04,13,09,29.30
2009,06,04,13,10,29.40
2009,06,04,13,11,29.40
2009,06,04,13,12,29.30
2009,06,04,13,13,29.20
2009,06,04,13,14,29.00
2009,06,04,13,15,28.90
2009,06,04,13,16,28.80
2009,06,04,13,17,28.80
2009,06,04,13,18,28.80
2009,06,04,13,19,28.80
2009,06,04,13,20,28.80
2009,06,04,13,21,28.70
2009,06,04,13,22,28.70
2009,06,04,13,23,28.60
2009,06,04,13,24,28.60
2009,06,04,13,25,28.60
2009,06,04,13,26,28.70
2009,06,04,13,27,28.70
2009,06,04,13,28,28.90
2009,06,04,13,29,29.00
2009,06,04,13,30,29.20
2009,06,04,13,31,29.30
2009,06,04,13,32,29.40
2009,06,04,13,33,29.40
2009,06,04,13,34,29.50
2009,06,04,13,35,29.50
2009,06,04,13,36,29.50
2009,06,04,13,37,29.40
2009,06,04,13,38,29.40
2009,06,04,13,39,29.30
2009,06,04,13,40,29.30
2009,06,04,13,41,29.20
2009,06,04,13,42,29.10
2009,06,04,13,43,29.00
2009,06,04,13,44,29.00
2009,06,04,13,45,29.00
2009,06,04,13,46,29.00
2009,06,04,13,47,29.00
2009,06,04,13,48,29.10
2009,06,04,13,49,29.10
2009,06,04,13,50,29.10
2009,06,04,13,51,29.20
2009,06,04,13,52,29.30
2009,06,04,13,53,29.40
2009,06,04,13,54,29.50
2009,06,04,13,55,29.60
2009,06,04,13,56,29.60
2009,06,04,13,57,29.60
2009,06,04,13,58,29.60
2009,06,04,13,59,29.60
2009,06,04,14,00,29.50
2009,06,04,14,01,29.40
2009,06,04,14,02,29.40
2009,06,04,14,03,29.50
2009,06,04,14,04,29.50
2009,06,04,14,05,29.50
2009,06,04,14,06,29.60
2009,06,04,14,07,29.60
2009,06,04,14,08,29.60
2009,06,04,14,09,29.50
2009,06,04,14,10,29.50
2009,06,04,14,11,29.50
2009,06,04,14,12,29.60
2009,06,04,14,13,29.70
2009,06,04,14,14,29.70
2009,06,04,14,15,29.80
2009,06,04,14,16,29.80
2009,06,04,14,17,29.80
2009,06,04,14,18,29.90
2009,06,04,14,19,30.00
2009,06,04,14,20,30.10
2009,06,04,14,21,30.10
2009,06,04,14,22,30.10
2009,06,04,14,23,30.10
2009,06,04,14,24,30.00
2009,06,04,14,25,29.90
2009,06,04,14,26,29.80
2009,06,04,14,27,29.80
2009,06,04,14,28,29.80
2009,06,04,14,29,29.80
2009,06,04,14,30,29.70
2009,06,04,14,31,29.60
2009,06,04,14,32,29.60
2009,06,04,14,33,29.60
2009,06,04,14,34,29.60
2009,06,04,14,35,29.60
2009,06,04,14,36,29.60
2009,06,04,14,37,29.70
2009,06,04,14,38,29.70
2009,06,04,14,39,29.80
2009,06,04,14,40,29.80
2009,06,04,14,41,29.90
2009,06,04,14,42,29.90
2009,06,04,14,43,29.80
2009,06,04,14,44,29.70
2009,06,04,14,45,29.70
2009,06,04,14,46,29.70
2009,06,04,14,47,29.70
2009,06,04,14,48,29.80
2009,06,04,14,49,29.80
2009,06,04,14,50,29.80
2009,06,04,14,51,29.90
2009,06,04,14,52,29.90
2009,06,04,14,53,29.90
2009,06,04,14,54,29.90
2009,06,04,14,55,29.80
2009,06,04,14,56,29.80
2009,06,04,14,57,29.90
2009,06,04,14,58,30.00
2009,06,04,14,59,30.00
2009,06,04,15,00,30.10
2009,06,04,15,01,30.10
2009,06,04,15,02,30.10
2009,06,04,15,03,30.10
2009,06,04,15,04,30.10
2009,06,04,15,05,30.00
2009,06,04,15,06,30.10
2009,06,04,15,07,30.20
2009,06,04,15,08,30.20
2009,06,04,15,09,30.10
2009,06,04,15,10,30.10
2009,06,04,15,11,30.10
2009,06,04,15,12,30.10
2009,06,04,15,13,30.10
2009,06,04,15,14,30.10
2009,06,04,15,15,30.20
2009,06,04,15,16,30.20
2009,06,04,15,17,30.30
2009,06,04,15,18,30.40
2009,06,04,15,19,30.40
2009,06,04,15,20,30.50
2009,06,04,15,21,30.50
2009,06,04,15,22,30.50
2009,06,04,15,23,30.50
2009,06,04,15,24,30.40
2009,06,04,15,25,30.30
2009,06,04,15,26,30.20
2009,06,04,15,27,30.10
2009,06,04,15,28,30.00
2009,06,04,15,29,30.00
2009,06,04,15,30,30.00
2009,06,04,15,31,30.00
2009,06,04,15,32,30.00
2009,06,04,15,33,30.00
2009,06,04,15,34,30.00
2009,06,04,15,35,30.00
2009,06,04,15,36,30.10
2009,06,04,15,37,30.10
2009,06,04,15,38,30.10
2009,06,04,15,39,30.20
2009,06,04,15,40,30.30
2009,06,04,15,41,30.40
2009,06,04,15,42,30.40
2009,06,04,15,43,30.50
2009,06,04,15,44,30.50
2009,06,04,15,45,30.40
2009,06,04,15,46,30.40
2009,06,04,15,47,30.40
2009,06,04,15,48,30.30
2009,06,04,15,49,30.30
2009,06,04,15,50,30.40
2009,06,04,15,51,30.40
2009,06,04,15,52,30.50
2009,06,04,15,53,30.60
2009,06,04,15,54,30.70
2009,06,04,15,55,30.70
2009,06,04,15,56,30.80
2009,06,04,15,57,30.80
2009,06,04,15,58,30.80
2009,06,04,15,59,30.80
2009,06,04,16,00,30.80
2009,06,04,16,01,30.80
2009,06,04,16,02,30.80
2009,06,04,16,03,30.80
2009,06,04,16,04,30.80
2009,06,04,16,05,30.80
2009,06,04,16,06,30.90
2009,06,04,16,07,30.90
2009,06,04,16,08,30.90
2009,06,04,16,09,30.90
2009,06,04,16,10,31.00
2009,06,04,16,11,31.10
2009,06,04,16,12,31.10
2009,06,04,16,13,31.20
2009,06,04,16,14,31.20
2009,06,04,16,15,31.10
2009,06,04,16,16,31.10
2009,06,04,16,17,31.10
2009,06,04,16,18,31.00
2009,06,04,16,19,31.00
2009,06,04,16,20,31.00
2009,06,04,16,21,31.10
2009,06,04,16,22,31.10
2009,06,04,16,23,31.20
2009,06,04,16,24,31.30
2009,06,04,16,25,31.30
2009,06,04,16,26,31.40
2009,06,04,16,27,31.50
2009,06,04,16,28,31.50
2009,06,04,16,29,31.60
2009,06,04,16,30,31.60
2009,06,04,16,31,31.60
2009,06,04,16,32,31.60
2009,06,04,16,33,31.60
2009,06,04,16,34,31.60
2009,06,04,16,35,31.60
2009,06,04,16,36,31.60
2009,06,04,16,37,31.60
2009,06,04,16,38,31.50
2009,06,04,16,39,31.40
2009,06,04,16,40,31.40
2009,06,04,16,41,31.30
2009,06,04,16,42,31.30
2009,06,04,16,43,31.30
2009,06,04,16,44,31.30
2009,06,04,16,45,31.30
2009,06,04,16,46,31.30
2009,06,04,16,47,31.40
2009,06,04,16,48,31.40
2009,06,04,16,49,31.50
2009,06,04,16,50,31.50
2009,06,04,16,51,31.60
2009,06,04,16,52,31.70
2009,06,04,16,53,31.70
2009,06,04,16,54,31.80
2009,06,04,16,55,31.80
2009,06,04,16,56,31.80
2009,06,04,16,57,31.80
2009,06,04,16,58,31.80
2009,06,04,16,59,31.80
2009,06,04,17,00,31.80
2009,06,04,17,01,31.80
2009,06,04,17,02,31.80
2009,06,04,17,03,31.70
2009,06,04,17,04,31.70
2009,06,04,17,05,31.60
2009,06,04,17,06,31.60
2009,06,04,17,07,31.60
2009,06,04,17,08,31.60
2009,06,04,17,09,31.70
2009,06,04,17,10,31.70
2009,06,04,17,11,31.80
2009,06,04,17,12,31.80
2009,06,04,17,13,31.80
2009,06,04,17,14,31.80
2009,06,04,17,15,31.70
2009,06,04,17,16,31.70
2009,06,04,17,17,31.70
2009,06,04,17,18,31.70
2009,06,04,17,19,31.70
2009,06,04,17,20,31.70
2009,06,04,17,21,31.70